Location: Observatorio Las Palmas
(29.0667°N, 110.9333°W)
Time: 13:15:31
(UTC-07:00)

Hubble Space Telescope - Visible Passes

Search period start: 26 November 2014 00:00
Search period end: 06 December 2014 00:00
Orbit: 546 x 549 km, 28.5° (Epoch: 26 November)

Date Brightness Start Highest point End Pass type
(mag) Time Alt. Az. Time Alt. Az. Time Alt. Az.
26 Nov 0.7 05:21:12 60° W 05:21:56 84° S 05:26:07 10° E visible
27 Nov 0.6 05:14:11 77° WSW 05:14:25 83° S 05:18:37 10° E visible
28 Nov 0.8 05:07:08 75° SSE 05:07:08 75° SSE 05:11:05 10° E visible
29 Nov 1.3 05:00:04 57° SE 05:00:04 57° SE 05:03:32 10° ESE visible
30 Nov 1.9 04:53:00 42° SE 04:53:00 42° SE 04:55:57 10° ESE visible
30 Nov 2.4 06:29:32 10° WSW 06:32:57 24° SSW 06:36:21 10° SSE visible
01 Dec 2.4 04:45:56 31° SE 04:45:56 31° SE 04:48:19 10° ESE visible
01 Dec 2.8 06:22:20 10° WSW 06:25:18 19° SSW 06:28:16 10° SSE visible
02 Dec 3.0 04:38:53 23° SE 04:38:53 23° SE 04:40:38 10° SE visible
02 Dec 3.0 06:15:23 10° WSW 06:17:38 14° SSW 06:19:54 10° S visible
03 Dec 3.4 04:31:51 16° SE 04:31:51 16° SE 04:32:51 10° SE visible
03 Dec 3.3 06:09:16 10° SW 06:09:57 10° SSW 06:10:39 10° SSW visible
04 Dec 3.8 04:24:49 11° SE 04:24:49 11° SE 04:24:59 10° SE visible
